User: anonymous   Login
Location: Izdebno
(52.6670°N, 16.2170°E)
Time: 14:34:42
(UTC+01:00)
Language:

SR - Orbit

View from above orbital plane
View from above orbital plane
View from above satellite
View from above satellite

Ground track
Ground track

The orbit data is extracted from the following two-line orbital elements,

1    46U 60007B   23332.10536143  .00002201  00000-0  43535-3 0  9997
2    46  66.6907 242.9392 0212274 272.0481  85.6333 14.51133089321558
Epoch (UTC): 28 November 2023 02:31:43
Eccentricity: 0.0212274
inclination: 66.6907°
perigee height: 571 km
apogee height: 872 km
right ascension of ascending node: 242.9392°
argument of perigee: 272.0481°
revolutions per day: 14.51133089
mean anomaly at epoch: 85.6333°
orbit number at epoch: 32155

The dashed part of the orbit path shows where the satellite is in the earth's shadow,  

DLR